N4QEP-13 Weather Reports


time (UTC)temp
C
wind
direction
speed
KPH
gust
KPH
rain 1hr
cm
rain 24hr
cm
rain mn
cm
humidity
%
barometer
mb
20260510204541 29 217 1.6 6.4 0.00 0.13 0.00 51 1015.9
20260510203038 29 150 0.0 4.8 0.00 0.13 0.00 53 1015.9
20260510201541 30 188 0.0 8.0 0.00 0.13 0.00 54 1016.0
20260510200037 29 257 0.0 4.8 0.00 0.13 0.00 53 1015.9
20260510194503 28 115 0.0 6.4 0.00 0.13 0.00 55 1016.0
20260510193002 28 118 0.0 4.8 0.00 0.13 0.00 56 1016.1
20260510191532 28 147 0.0 1.6 0.00 0.13 0.00 55 1016.3
20260510190031 28 193 0.0 3.2 0.00 0.13 0.00 53 1016.6
20260510184529 28 205 1.6 4.8 0.00 0.13 0.00 51 1016.6
20260510183031 28 331 1.6 3.2 0.00 0.13 0.00 50 1016.8
20260510181528 28 48 0.0 9.7 0.00 0.13 0.00 52 1016.8
20260510180026 27 300 1.6 9.7 0.00 0.13 0.00 54 1016.9
20260510174523 27 32 1.6 9.7 0.00 0.18 0.00 54 1017.0
20260510173023 27 26 4.8 9.7 0.00 0.18 0.00 52 1017.2
20260510171519 28 152 0.0 6.4 0.00 0.18 0.00 54 1017.3
20260510170016 27 354 3.2 9.7 0.00 0.18 0.00 59 1017.4
20260510164512 26 347 3.2 9.7 0.00 0.56 0.00 59 1017.5
20260510163010 26 65 3.2 9.7 0.00 0.56 0.00 61 1017.5
20260510161509 26 6 1.6 6.4 0.00 0.56 0.00 62 1017.6
20260510160008 26 25 4.8 8.0 0.00 0.56 0.00 62 1017.6
20260510154506 26 35 3.2 8.0 0.00 1.70 0.00 62 1017.6
20260510153004 25 58 1.6 6.4 0.00 1.70 0.00 64 1017.7
20260510151601 24 23 0.0 6.4 0.00 1.70 0.00 65 1017.8
20260510150059 23 65 1.6 6.4 0.00 1.70 0.00 66 1017.8
20260510144609 23 339 3.2 9.7 0.00 1.70 0.00 66 1018.1
20260510143105 23 324 3.2 6.4 0.00 1.70 0.00 71 1018.0
20260510141547 22 345 1.6 6.4 0.00 1.70 0.00 73 1017.8
20260510140046 22 81 1.6 6.4 0.00 1.70 0.00 75 1017.7
20260510134543 21 49 0.0 9.7 0.00 1.73 0.00 77 1017.5
20260510133034 20 14 3.2 6.4 0.00 1.73 0.00 78 1017.5
20260510131532 20 58 3.2 6.4 0.00 1.73 0.00 80 1017.5
20260510130029 19 22 3.2 8.0 0.00 1.73 0.00 81 1017.5
20260510124604 18 37 0.0 6.4 0.00 1.73 0.00 81 1017.4
20260510123055 18 340 1.6 4.8 0.00 1.73 0.00 81 1017.2
20260510121550 18 68 0.0 3.2 0.00 1.73 0.00 81 1016.8
20260510120049 18 98 0.0 0.0 0.00 1.73 0.00 81 1016.6
20260510114548 17 98 0.0 1.6 0.00 1.73 0.00 81 1016.5
20260510113047 17 27 0.0 4.8 0.00 1.73 0.00 81 1016.6
20260510111553 17 10 0.0 3.2 0.00 1.73 0.00 81 1016.2
20260510110039 17 32 0.0 3.2 0.00 1.73 0.00 81 1015.8
20260510104545 17 29 0.0 1.6 0.00 1.75 0.00 81 1015.5
20260510103038 17 70 1.6 4.8 0.00 1.75 0.00 81 1015.4
20260510101530 18 95 1.6 6.4 0.00 1.75 0.00 81 1015.3
20260510100029 18 75 0.0 6.4 0.00 1.75 0.00 81 1015.0
20260510094531 18 70 0.0 3.2 0.00 1.75 0.00 81 1014.9
20260510093026 18 340 0.0 3.2 0.00 1.75 0.00 81 1014.9
20260510091520 18 356 0.0 1.6 0.00 1.75 0.00 81 1014.7
20260510090056 18 349 0.0 4.8 0.00 1.75 0.00 81 1014.4
20260510084555 18 1 3.2 6.4 0.00 1.78 0.00 81 1014.1
20260510083054 18 65 0.0 0.0 0.00 1.78 0.00 81 1014.2
20260510081609 18 65 0.0 0.0 0.00 1.78 0.00 81 1014.1
20260510080053 18 69 0.0 0.0 0.00 1.78 0.00 81 1013.9
20260510074552 18 69 0.0 0.0 0.00 1.80 0.00 81 1013.8
20260510073048 18 69 0.0 0.0 0.00 1.80 0.00 81 1013.6
20260510071542 19 69 0.0 0.0 0.00 1.80 0.00 81 1013.8
20260510070041 19 69 0.0 0.0 0.00 1.80 0.00 81 1014.0
20260510064540 19 69 0.0 0.0 0.00 1.80 0.00 81 1013.9
20260510063040 19 69 0.0 0.0 0.00 1.80 0.00 81 1014.0
20260510061538 19 69 0.0 0.0 0.00 1.80 0.00 81 1014.2
20260510060048 19 69 0.0 0.0 0.00 1.80 0.00 81 1014.5
20260510054535 19 69 0.0 0.0 0.00 1.80 0.00 81 1014.2
20260510053034 19 88 0.0 0.0 0.00 1.80 0.00 81 1013.8
20260510051532 19 88 0.0 1.6 0.00 1.80 0.00 81 1014.3
20260510050028 19 89 0.0 1.6 0.00 1.80 0.00 81 1014.6
20260510044525 19 79 0.0 1.6 0.00 1.80 1.80 81 1014.6
20260510043025 19 79 0.0 1.6 0.03 1.80 1.80 81 1014.8
20260510041529 19 90 0.0 3.2 0.03 1.80 1.80 81 1014.9
20260510040025 19 33 0.0 3.2 0.03 1.80 1.80 81 1015.1
20260510034521 19 328 1.6 4.8 0.03 1.83 1.80 81 1015.2
20260510033021 19 52 0.0 1.6 0.00 1.80 1.78 81 1014.8
20260510031520 20 31 0.0 3.2 0.00 1.80 1.78 81 1014.6
20260510030021 20 18 0.0 6.4 0.00 1.80 1.78 81 1014.6
20260510024518 20 25 0.0 1.6 0.00 1.83 1.78 81 1014.6
20260510023033 20 24 0.0 0.0 0.00 1.83 1.78 81 1014.6
20260510021518 20 25 0.0 1.6 0.00 1.83 1.78 81 1014.6
20260510020016 20 25 0.0 1.6 0.00 1.83 1.78 81 1014.7
20260510014545 20 70 0.0 1.6 0.03 1.85 1.78 80 1014.6
20260510013045 20 20 0.0 1.6 0.03 1.85 1.78 80 1014.9
20260510011521 20 282 0.0 1.6 0.03 1.85 1.78 80 1015.0
20260510010017 20 283 0.0 1.6 0.03 1.85 1.78 80 1013.9
20260510004511 20 281 0.0 1.6 0.00 1.83 1.75 80 1014.0
20260510003012 20 281 0.0 0.0 0.00 1.83 1.75 80 1013.6
20260510001511 20 46 0.0 0.0 0.00 1.83 1.75 80 1013.5
20260510000009 20 46 0.0 0.0 0.03 1.83 1.75 80 1013.6
20260509234507 20 46 0.0 1.6 0.03 1.83 1.75 80 1013.4
20260509233007 20 46 0.0 0.0 0.05 1.83 1.75 80 1013.6
20260509231507 20 46 0.0 1.6 0.05 1.83 1.75 80 1013.9
20260509230007 20 40 0.0 0.0 0.03 1.80 1.73 79 1013.6
20260509224504 20 40 0.0 1.6 0.03 1.83 1.73 79 1013.6
20260509223004 20 40 0.0 1.6 0.00 1.80 1.70 79 1013.6
20260509221503 21 41 0.0 3.2 0.03 1.80 1.70 79 1013.4
20260509220003 21 178 0.0 0.0 0.03 1.80 1.70 78 1013.2
20260509214533 21 178 0.0 1.6 0.03 1.80 1.70 78 1013.1
20260509213032 21 10 0.0 9.7 0.03 1.80 1.70 78 1013.2
20260509211552 21 344 3.2 9.7 0.00 1.78 1.68 77 1013.0
20260509210028 21 330 3.2 8.0 0.00 1.78 1.68 76 1012.8